FENGYUN 1C DEB, 30160

Orbit data source: Space-Track

FENGYUN 1C DEB, 30160 is space debris in SSO originally from a launch on Mon, 10 May 1999 UTC launched from the Taiyaun Space Center, China (TSC). Fengyun 1C debris stems from the Chinese weather satellite Fengyun-1C, which was intentionally destroyed by a Chinese anti-satellite missile in 2007. This event dramatically increased the amount of space debris, with thousands of trackable fragments posing hazards to satellites and human spaceflight. The Fengyun 1C debris cloud has become a focal point in discussions about space sustainability and the need for international regulations to prevent the creation of new debris.

Loading next visibility...
Identifier
30160, 1999-025TR
Orbit
SSO
Country
Flag of CNCN / PRC
Related business
Manufacturer
Unknown
Mission
Spacecraft
Bus & Motor
Unknown
Mass
Unknown
Launch date (UTC)
1999-05-10 (27 years ago)
Launch vehicle
Unknown
Launch site
Taiyaun Space Center, China (TSC)
Object type
Payload
Rocket body
Debris
Shape & HBR
Unknown shape, 0.2 m
Radar Cross Section
Medium (>0.1 m² and <1 m²)

Expand to show TLE details & history
Last TLE update: 23 hours ago

TLE from 23 hours ago
0 FENGYUN 1C DEB
1 30160U 99025TR  26254.78362682  .00000385  00000-0  52005-3 0  9997
2 30160  98.8964 176.9075 0340902 159.2114 263.8695 13.43257844960793
Epoch: 2026-09-11T18:48Z
TLE epoch observation values (Epoch: 2026-09-11T18:48:25.357Z)
Latitude
58.17372°
Longitude
-110.53198°
Altitude
1,142.672 km
Speed
7.27 km/s
True Right ascension
10h 49m 30s
True Declination
58° 01' 38"
Sunlit
Object was in daylight at epoch
Visualization orbit readout
Latitude
Unknown
Longitude
Unknown
Altitude
Unknown
Speed
Unknown
Apparent Right ascension
Unknown
Apparent Declination
Unknown
Sunlit
N/A
Visualization observer readout
Local Sidereal Time
10:21:18
Azimuth
Unknown
Elevation
Unknown
Doppler factor
Unknown
Orbital elements
Apogee altitude
1,349.176 km
Perigee altitude
839.693 km
Semi-major axis
7,472.571 km
Eccentricity
0.03409
Inclination
98.8964°
RAAN
176.9075°
Arg. of periapsis
159.2114°
True anomaly
260.00592°
Mean anomaly
263.8695°
Eccentric anomaly
261.93559°
Mean motion
3.35999 °/min
Orbital period
107.14 mins
BSTAR
0.00052005
Loading maneuver chart data...
Computing Atmospheric mass density...

Documentation

Showing up to 5 results
|